カタログに戻る

STARLINK-38071

運用中通信SSO
NORAD 69992·PAYLOAD·🇺🇸 United States

打ち上げ Jul 11, 2026 から Vandenberg Space Force Base

Loading…

次のパス (今後24時間)

TLE

最新Source: CelesTrak SupGP

元期: Sep 15, 2026, 04:21 UTC

1 69992C 26159T   26258.18173611 -.02698200  00000+0 -39218-1 0  2589
2 69992  97.2852  99.9652 0001761  81.9644 321.3277 15.57185405    14

AllMySatでSTARLINK-38071をリアルタイム追跡

Download on the App Store